EW9214 Weather Reports


time (UTC)temp
C
wind
direction
speed
KPH
gust
KPH
rain 1hr
cm
rain 24hr
cm
rain mn
cm
humidity
%
barometer
mb
20260906210012 28 139 24.1 43.5 0.00 0.18 0.00 45 1002.3
20260906204508 28 146 29.0 49.9 0.00 0.18 0.00 45 1002.6
20260906203005 28 117 24.1 38.6 0.00 0.18 0.00 45 1002.8
20260906201502 28 139 19.3 41.8 0.00 0.18 0.00 44 1002.7
20260906200058 28 169 20.9 40.2 0.00 0.18 0.00 47 1002.9
20260906194601 28 130 17.7 32.2 0.00 0.18 0.00 49 1003.0
20260906193053 27 178 22.5 32.2 0.00 0.18 0.00 48 1003.0
20260906191551 27 159 17.7 33.8 0.00 0.18 0.00 49 1003.2
20260906190049 27 150 20.9 40.2 0.00 0.18 0.00 51 1003.3
20260906184547 27 101 24.1 30.6 0.00 0.18 0.00 49 1003.5
20260906183054 26 167 19.3 29.0 0.00 0.18 0.00 51 1003.7
20260906181548 26 128 16.1 30.6 0.00 0.18 0.00 51 1004.0
20260906180041 26 131 14.5 24.1 0.00 0.18 0.00 53 1004.2
20260906174541 25 155 16.1 29.0 0.00 0.18 0.00 54 1004.3
20260906173036 25 130 16.1 25.7 0.00 0.18 0.00 55 1004.5
20260906171532 25 128 17.7 24.1 0.00 0.18 0.00 57 1004.7
20260906170031 24 88 17.7 24.1 0.00 0.18 0.00 59 1005.0
20260906164528 23 121 16.1 22.5 0.00 0.18 0.00 62 1005.1
20260906163040 23 131 12.9 17.7 0.00 0.18 0.00 63 1005.1
20260906161525 23 165 8.0 20.9 0.00 0.18 0.00 63 1005.1
20260906160019 22 181 12.9 19.3 0.00 0.18 0.00 66 1005.2
20260906154515 22 158 11.3 22.5 0.00 0.18 0.00 67 1005.1
20260906153012 22 145 12.9 27.4 0.00 0.18 0.00 69 1005.0
20260906151510 21 174 12.9 22.5 0.00 0.18 0.00 71 1005.1
20260906150008 21 154 12.9 17.7 0.00 0.18 0.00 72 1005.1
20260906144505 20 161 14.5 22.5 0.00 0.18 0.00 74 1005.0
20260906143001 20 150 11.3 19.3 0.00 0.18 0.00 75 1005.0
20260906141601 20 140 6.4 12.9 0.00 0.18 0.00 77 1005.2
20260906140100 18 118 3.2 6.4 0.00 0.18 0.00 81 1005.3
20260906134559 17 118 3.2 6.4 0.00 0.18 0.00 89 1005.1
20260906133054 16 118 0.0 3.2 0.00 0.18 0.00 89 1004.9
20260906131548 15 118 0.0 1.6 0.00 0.18 0.00 89 1004.7
20260906124547 15 118 6.4 14.5 0.00 0.18 0.00 88 1004.6
20260906123047 15 103 8.0 11.3 0.00 0.18 0.00 89 1004.5
20260906121549 15 106 11.3 12.9 0.00 0.18 0.00 88 1004.3
20260906120044 15 80 11.3 12.9 0.00 0.18 0.00 88 1004.3
20260906114542 15 80 6.4 8.0 0.00 0.18 0.00 88 1004.1
20260906113041 15 80 6.4 11.3 0.00 0.18 0.00 87 1004.0
20260906111543 15 80 8.0 9.7 0.00 0.18 0.00 88 1004.1
20260906110041 15 80 11.3 16.1 0.00 0.18 0.00 88 1004.3
20260906104539 15 70 9.7 20.9 0.00 0.18 0.00 89 1004.3
20260906103038 15 71 14.5 16.1 0.00 0.18 0.00 88 1004.3
20260906101538 15 69 16.1 19.3 0.00 0.18 0.00 90 1004.4
20260906100041 15 30 17.7 20.9 0.00 0.18 0.00 89 1004.5
20260906094535 15 43 19.3 24.1 0.00 0.18 0.00 88 1004.5
20260906093046 15 319 3.2 6.4 0.00 0.18 0.00 87 1004.0
20260906091531 15 319 3.2 8.0 0.00 0.18 0.00 87 1003.9
20260906090029 15 319 3.2 6.4 0.00 0.18 0.00 86 1003.9
20260906084528 16 319 8.0 14.5 0.00 0.18 0.00 85 1003.6
20260906083025 16 196 4.8 6.4 0.00 0.18 0.00 82 1003.5
20260906081543 17 196 1.6 9.7 0.00 0.18 0.00 82 1003.5
20260906080022 17 196 8.0 11.3 0.00 0.18 0.00 82 1003.5
20260906074522 17 173 11.3 17.7 0.00 0.18 0.00 83 1003.6
20260906073035 16 188 12.9 14.5 0.00 0.18 0.00 83 1003.8
20260906071516 17 161 9.7 14.5 0.00 0.18 0.00 81 1004.0
20260906070016 17 143 6.4 11.3 0.00 0.18 0.00 80 1004.1
20260906064513 17 143 9.7 14.5 0.00 0.18 0.00 79 1004.0
20260906063012 17 135 8.0 14.5 0.00 0.18 0.00 80 1003.9
20260906061510 17 128 9.7 14.5 0.00 0.18 0.00 80 1003.8
20260906060007 17 115 8.0 12.9 0.00 0.18 0.00 80 1003.7
20260906054509 18 161 11.3 16.1 0.00 0.18 0.18 79 1003.7
20260906053005 18 167 11.3 17.7 0.00 0.18 0.18 78 1003.6
20260906051505 19 164 14.5 16.1 0.00 0.18 0.18 77 1003.6
20260906050007 19 165 11.3 14.5 0.00 0.18 0.18 78 1003.5
20260906044504 20 171 9.7 17.7 0.00 0.18 0.18 75 1003.5
20260906043004 21 146 8.0 12.9 0.00 0.18 0.18 74 1003.5
20260906041503 21 164 11.3 24.1 0.00 0.18 0.18 73 1003.3
20260906040004 21 160 17.7 24.1 0.00 0.18 0.18 72 1003.2
20260906034503 21 126 12.9 19.3 0.00 0.18 0.18 73 1003.3
20260906033002 21 126 14.5 20.9 0.00 0.18 0.18 71 1003.1
20260906031501 22 116 14.5 20.9 0.00 0.18 0.18 67 1002.9
20260906030002 22 124 12.9 17.7 0.00 0.18 0.18 67 1002.7
20260906024502 23 150 16.1 22.5 0.00 0.18 0.18 64 1002.5
20260906023130 23 165 17.7 24.1 0.00 0.18 0.18 64 1002.3
20260906021600 23 164 16.1 24.1 0.00 0.18 0.18 62 1002.2
20260906020100 23 161 16.1 25.7 0.00 0.18 0.18 59 1002.2
20260906014623 23 162 22.5 35.4 0.00 0.18 0.18 56 1002.1
20260906013100 23 171 25.7 35.4 0.00 0.18 0.18 56 1002.1
20260906011600 23 155 24.1 40.2 0.00 0.18 0.18 58 1002.1
20260906010057 24 160 32.2 43.5 0.00 0.18 0.18 56 1002.0
20260906004612 26 158 29.0 48.3 0.00 0.18 0.18 51 1002.0
20260906003057 27 110 11.3 16.1 0.00 0.18 0.18 43 1001.5
20260906001556 27 103 14.5 17.7 0.00 0.18 0.18 41 1001.3
20260906000106 29 109 16.1 19.3 0.03 0.18 0.18 35 1001.1
20260905234600 30 115 14.5 22.5 0.03 0.18 0.18 34 1001.1
20260905233057 28 117 16.1 27.4 0.03 0.18 0.18 37 1001.0
20260905231555 28 83 17.7 27.4 0.03 0.18 0.18 39 1001.0
20260905230053 27 89 22.5 33.8 0.00 0.15 0.15 41 1001.0
20260905224604 26 98 25.7 38.6 0.00 0.15 0.15 45 1001.0
20260905223052 26 57 16.1 24.1 0.00 0.15 0.15 51 1000.9
20260905221553 26 47 17.7 35.4 0.15 0.15 0.15 52 1000.8
20260905220053 25 40 19.3 53.1 0.15 0.15 0.15 54 1000.6
20260905214551 25 19 32.2 41.8 0.15 0.15 0.15 50 1000.3
20260905213048 29 306 8.0 16.1 0.15 0.15 0.15 41 1000.7
20260905211547 30 158 12.9 22.5 0.00 0.00 0.00 34 1000.8